Regional Weather Roundup
Issued by NWS

Home | Current Version | Previous Version | Graphics & Text | Print | Product List | Glossary On
Versions: 1 2 3 4 5 6 7 8 9 10 11 12 13 14 15 16 17 18 19 20 21 22 23 24 25 26 27 28 29 30 31 32 33 34 35 36 37 38 39 40 41 42 43 44 45 46 47 48 49 50
000
ASUS43 KMKX 220921
RWRWI

WISCONSIN REGIONAL WEATHER ROUNDUP
NATIONAL WEATHER SERVICE MILWAUKEE/SULLIVAN WI
400 AM CDT SUN OCT 22 2017

NOTE: "FAIR" INDICATES FEW OR NO CLOUDS BELOW 12,000 FEET WITH NO
SIGNIFICANT WEATHER AND/OR OBSTRUCTIONS TO VISIBILITY.

WIZ001-002-006>008-014>016-023>028-221000-
NORTHWEST WISCONSIN

CITY           SKY/WX    TMP DP  RH WIND       PRES   REMARKS
SUPERIOR ARPT  CLOUDY    49  46  90 SW7       29.78R
ASHLAND        CLOUDY    54  49  83 SW15      29.77R
HAYWARD        CLOUDY    50  46  86 SW9       29.83R
SIREN          CLOUDY    48  43  82 SW8       29.84R
CUMBERLAND     CLOUDY    46  43  87 W8        29.85S
RICE LAKE      CLOUDY    50  44  80 SW8       29.86S
CHETEK         CLOUDY    50  45  81 W5        29.85S
LADYSMITH      LGT RAIN  53  51  94 SW8       29.86R
EAU CLAIRE     CLOUDY    52  47  83 W8        29.86R
MENOMONIE      CLOUDY    52  46  78 W8        29.87S
NEW RICHMOND   CLOUDY    48  43  81 W7        29.87R
OSCEOLA        CLOUDY    48  43  84 SW7       29.90S
$$

WIZ003>005-009-010-017-018-221000-
NORTH CENTRAL WISCONSIN

CITY           SKY/WX    TMP DP  RH WIND       PRES   REMARKS
MANITOWISH WTR LGT RAIN  58  58 100 S12       29.75S
ARBOR VITAE    DRIZZLE   62  60  94 S9G21     29.77F
WOODRUFF       DRIZZLE   62  60  94 S9G21     29.77F
RHINELANDER    CLOUDY    60  60 100 S10G20    29.81F
EAGLE RIVER    NOT AVBL
LAND O LAKES   MOCLDY    59  58  97 S6        29.79F
PHILLIPS       DRIZZLE   51  51 100 SW8       29.81R
TOMAHAWK       DRIZZLE   59  58  96 S3        29.80F
MEDFORD        LGT RAIN  51  50  95 W9        29.83R
MERRILL        CLOUDY    60  60 100 S7        29.82F
$$

WIZ029-030-035-036-043>047-221000-
CENTRAL WISCONSIN

CITY           SKY/WX    TMP DP  RH WIND       PRES   REMARKS
WAUSAU         CLOUDY    60  58  92 S12       29.81F
MOSINEE        CLOUDY    59  59 100 S8        29.84F
MARSHFIELD     LGT RAIN  54  50  86 W12G22    29.83S
STEVENS POINT  CLOUDY    59  59  99 S5        29.84F
WAUPACA        PTCLDY    66  59  79 S5        29.85S
WAUTOMA        CLOUDY   N/A N/A N/A CALM      29.85F
WISC RAPIDS    CLOUDY    60  59  96 SW6       29.85S
CAMP DOUGLAS   NOT AVBL
$$

WIZ011>013-019>022-031-037>040-048>050-221000-
NORTHEAST WISCONSIN

CITY           SKY/WX    TMP DP  RH WIND       PRES   REMARKS
ANTIGO         CLOUDY    59  58  98 SW8       29.84F
SHAWANO        PTCLDY    66  58  75 S5        29.84F
OCONTO         CLOUDY    63  57  81 S8        29.86F
STURGEON BAY   CLOUDY    59  55  87 S18       29.88F
GREEN BAY      CLOUDY    66  59  78 S10       29.88S
MANITOWOC      CLOUDY    59  54  83 S13       29.91F
APPLETON       CLOUDY    64  54  68 S12       29.86F
CLINTONVILLE   MOCLDY    66  57  72 S8        29.84F
OSHKOSH        CLOUDY    67  58  72 S14       29.87S
$$

WIZ032>034-041-042-053>061-221000-
SOUTHWEST WISCONSIN

CITY           SKY/WX    TMP DP  RH WIND       PRES   REMARKS
LA CROSSE      LGT RAIN  55  53  93 W5        29.88S
SPARTA         CLOUDY    52  52  99 W3        29.90R
VIROQUA        CLOUDY    53  53 100 NW7       29.90R
BOSCOBEL       LGT RAIN  58  55  90 NW9       29.88R
PRAIRIE DU CHI LGT RAIN  55  52  91 W9        29.90R
PLATTEVILLE    CLOUDY    61  61 100 SW8       29.88S
$$

WIZ056-057-062-063-064-067-068-221000-
SOUTH CENTRAL WISCONSIN

CITY           SKY/WX    TMP DP  RH WIND       PRES   REMARKS
REEDSBURG      CLOUDY    60  60 100 CALM      29.86S
BARABOO/DELLS  CLOUDY    61  57  85 S6        29.86S
LONE ROCK      CLOUDY    61  61 100 CALM      29.85F
MINERAL POINT  CLOUDY    63  61  94 CALM      29.86F
MADISON        CLOUDY    66  57  72 S12       29.87S
MIDDLETON      CLOUDY    67  57  70 S9        29.86F
WATERTOWN      CLOUDY    65  59  80 S8        29.88S
MONROE         CLOUDY    64  55  72 S10       29.86F
JANESVILLE     CLOUDY    68  55  64 S10       29.88S
$$

WIZ051-052-058>065-066-070>072-221000-
SOUTHEAST WISCONSIN

CITY           SKY/WX    TMP DP  RH WIND       PRES   REMARKS
MILWAUKEE      CLOUDY    68  56  65 S12       29.92F
WAUKESHA       CLOUDY    64  54  68 S9        29.92F
MILWAUKEE/TIMM CLOUDY    66  52  59 S8        29.91F
RACINE         CLOUDY    61  55  81 S10       29.94F
BURLINGTON     CLOUDY    66  58  75 S8        29.91F
KENOSHA        CLOUDY    67  55  65 S15       29.92F
FOND DU LAC    CLOUDY    68  55  63 S12G20    29.88S
SHEBOYGAN      MOCLDY    61  57  87 S8        29.91F
WEST BEND      MOCLDY    64  54  68 S9        29.90F
JUNEAU         CLOUDY    65  57  73 S10       29.90S
$$

LSZ147-162-221000-
LAKE SUPERIOR

STATION/POSITION TIME  TEMP    WIND        PRES    WAVE
                       AIR SEA DIR/SP/G            HT/PER
                 (UTC) (F)     (DEG/KT/KT) (MB)    (FT/S)
W MID LAKE BUOY  0850   55 52              1005.8R   3/ 4
DEVILS ISLAND    0900   55     240/ 23/ 28 1006.5R
PORT WING        0730          230/ 11/ 17 1007.8R
SAXON HARBOR     0830   57     230/  9/ 15 1007.1R
$$

LMZ867-665-643>646-221000-
LAKE MICHIGAN

STATION/POSITION TIME  TEMP    WIND        PRES    WAVE
                       AIR SEA DIR/SP/G            HT/PER
                 (UTC) (F)     (DEG/KT/KT) (MB)    (FT/S)
S GREEN BAY BUOY 0830   62 58  180/ 14/ 16 1011.5F
N MID LAKE BUOY  0850   63 58  180/ 21/ 25 1013.1F   7/ 7
NORTHPORT PIER   0900   60     160/ 11/ 21 1011.9
KEWAUNEE LAKESHO 0900   54     180/ 11/ 13 1011.9
SHEBOYGAN LAKESH 0900   56     180/ 18/ 18 1012.7F
PORT WASHINGTON  0840   56     200/  5/  9 1014.2F
ATWATER BUOY     0809   57 52  160/ 14/ 17 1013.4F
MILWAUKEE LAKESH 0900   57     150/ 16/ 17   N/A
S MID LAKE BUOY  0850   63 60  150/ 17/ 21 1014.9F   4/ 5
KENOSHA   LAKESH 0900   58     170/ 15/ 16 1013.2
$$

TC  - TEMPERATURE IN CELSIUS
VSB - VISIBILITY IN STATUTE MILES
WCI - WIND CHILL INDEX
HX  - HEAT INDEX





USA.gov is the U.S. government's official web portal to all federal, state and local government web resources and services.